Terug naar catalogus

STARLINK-36239

ActiefCommunicatieVLEO
NORAD 67196·PAYLOAD·🇺🇸 United States

Gelanceerd Dec 17, 2025 vanaf Vandenberg Space Force Base

Loading…

Volgende Passages (komende 24 uur)

TLE

VersSource: CelesTrak SupGP

Epoch: Sep 14, 2026, 21:34 UTC

1 67196C 25304E   26257.89909722  .00031407  00000+0  26315-2 0  2571
2 67196  70.0010  57.5726 0003225 269.0324  30.3390 14.98321668    16

Volg STARLINK-36239 in realtime met AllMySat

Download on the App Store